{"data":{"norad_id":48287,"epoch":"2026-05-25T02:27:28.822752Z","epoch_age_seconds":59505,"freshness":"FRESH","line1":"1 48287U 21036M   26145.10241693  .00002188  00000+0  82230-4 0  9992","line2":"2 48287  53.1597  82.4191 0001314  90.2974 269.8178 15.31708238280072","mean_motion":15.31708238,"eccentricity":0.0001314,"inclination_deg":53.1597,"raan_deg":82.4191,"arg_perigee_deg":90.2974,"mean_anomaly_deg":269.8178,"bstar":8.223e-5,"rev_number":28007,"period_min":94.012682329126,"perigee_km":469.81549907599,"apogee_km":471.61537749677,"semimajor_km":6848.8524382864,"source":"CELESTRAK","updated_at":"2026-05-25T13:38:16.673982Z"}}